Theta_e
315 315 315 315 316 319 318 318 320 319 318 318 317 314 312 312 312 315 317 317 317 316 316 316 316 316 317 318 319 318 318 319 318 320 322 328 331 332 331 329 329 331 329 326 328 329 327 328 328 327 327 330 330 330 332 332 332 334 335 336 334 330 329 328 327 326 326 326 324 324 325 323 322 322 323 325 325 325 324 323 323 323 325 326 326 327
317 315 316 318 320 322 320 321 320 320 319 318 317 314 312 313 313 316 318 317 317 316 316 317 316 317 317 318 318 318 319 319 317 320 320 320 323 325 327 328 328 330 328 326 328 328 326 327 328 328 328 330 330 331 331 331 332 333 335 335 333 328 328 327 326 326 325 324 323 323 324 323 322 321 322 323 323 322 323 322 322 323 324 324 324 324
316 314 315 318 321 320 320 320 319 319 318 317 316 313 311 313 313 316 319 317 317 315 315 317 316 316 318 318 319 318 318 320 319 320 321 321 321 320 321 328 330 329 328 327 330 329 326 327 327 329 331 331 331 332 332 331 331 331 334 335 332 327 326 327 325 325 325 324 323 321 322 323 324 322 322 322 321 321 322 322 323 324 324 324 323 323
313 315 316 317 319 319 318 318 318 317 316 316 315 311 311 313 312 312 317 318 318 317 316 316 316 317 320 318 317 319 319 320 319 319 321 321 322 322 321 326 329 329 330 330 330 330 328 328 328 330 332 331 332 331 331 333 331 330 331 333 331 326 324 326 324 324 326 324 322 321 320 321 321 320 320 321 321 321 321 322 323 323 323 323 322 322
312 316 317 318 318 318 316 316 317 315 313 315 315 313 311 313 313 312 317 319 318 319 319 318 315 315 319 318 317 320 319 320 318 318 320 319 320 323 322 325 328 330 330 329 330 331 330 330 328 330 332 332 331 330 331 333 333 332 329 330 331 325 324 326 324 325 325 323 323 321 319 317 318 319 320 321 321 321 321 322 323 323 323 322 322 322
314 317 317 317 317 316 316 316 317 317 314 313 316 316 314 315 316 316 318 318 316 316 319 319 313 312 315 316 317 319 318 318 319 318 318 318 319 320 321 324 328 331 332 330 331 332 332 330 329 330 331 332 331 330 331 332 334 334 331 332 331 325 325 324 324 325 324 323 322 320 318 317 318 321 322 321 321 320 321 322 322 323 323 322 321 321
314 316 317 316 317 316 316 315 316 318 314 312 316 317 316 316 317 316 317 316 313 314 318 319 314 312 313 314 317 318 317 318 319 319 319 318 318 318 320 322 323 330 333 334 332 330 329 328 329 331 329 330 330 329 330 330 333 335 335 335 330 325 325 324 325 325 323 322 321 318 317 318 320 323 322 321 320 321 321 322 323 323 323 322 322 321
316 316 316 316 316 316 315 314 316 317 314 313 317 317 316 316 317 317 316 314 314 315 317 318 316 313 312 314 317 318 317 318 318 319 319 318 319 318 319 320 320 325 330 333 332 330 330 329 329 331 330 328 328 328 328 328 331 335 336 335 329 326 325 324 326 324 321 322 319 318 318 319 321 322 321 320 319 320 321 322 323 323 322 322 322 320
317 316 317 317 315 315 314 314 316 316 315 316 318 318 316 317 318 317 314 313 315 315 313 314 314 313 312 313 317 317 316 316 318 320 319 318 318 318 318 319 319 321 324 327 328 330 331 329 329 329 330 329 326 326 327 327 331 335 337 334 328 326 325 325 326 323 321 321 319 319 318 319 322 321 320 319 319 320 321 322 322 321 322 321 319 317
317 316 316 316 315 315 314 315 316 316 317 317 318 317 316 317 318 317 316 312 313 315 313 313 314 313 312 312 315 316 314 316 319 319 319 318 318 319 320 319 320 320 321 321 322 328 330 330 330 328 328 329 326 326 327 328 331 334 336 334 328 326 325 325 325 322 321 321 319 319 319 320 322 320 319 320 319 320 321 321 320 320 320 319 317 315
315 316 316 314 314 315 315 315 315 315 316 317 317 318 316 317 317 317 315 313 314 316 315 314 313 313 312 313 315 316 316 317 319 320 319 319 318 319 320 320 319 319 320 320 319 323 328 327 329 330 332 331 329 328 328 330 330 332 336 334 328 326 325 325 324 322 322 321 319 319 319 320 320 318 319 320 319 320 320 320 319 319 320 318 317 316
314 314 314 314 313 314 313 314 315 315 316 317 317 315 315 314 315 315 314 314 316 316 314 313 313 313 312 313 316 318 317 318 319 319 318 318 318 319 320 319 319 319 319 319 319 323 327 326 326 329 331 333 332 331 330 330 329 330 334 333 329 326 325 325 324 322 323 321 320 320 319 319 320 318 319 320 319 320 319 319 320 319 319 318 317 317
314 314 314 315 313 313 312 311 312 313 314 316 314 312 313 313 314 316 315 316 317 316 315 315 314 313 312 314 316 317 316 317 318 318 318 317 318 319 319 318 320 319 318 319 321 325 328 329 328 327 328 331 335 334 333 332 330 329 333 333 329 327 326 325 324 322 323 322 320 320 319 320 320 319 320 320 320 320 319 320 320 319 319 318 317 317
313 315 315 314 314 313 313 311 309 310 313 313 311 311 312 314 316 318 317 317 317 316 315 316 315 313 313 316 319 316 316 318 318 318 318 319 320 319 318 318 318 319 319 320 324 326 327 329 330 328 325 328 334 336 335 336 332 327 330 332 329 327 326 325 324 323 323 323 321 321 320 319 319 319 319 320 319 320 320 320 320 320 319 318 318 317
312 314 315 314 314 313 313 312 311 311 313 313 314 313 312 313 316 318 316 315 316 314 314 314 315 312 314 319 321 317 317 318 317 318 319 320 320 319 318 317 319 319 320 322 325 327 327 329 331 330 327 328 334 336 335 335 330 324 325 329 329 327 327 326 325 324 324 323 322 322 320 319 319 318 319 321 320 320 320 319 320 319 319 319 319 318
310 311 314 315 314 314 313 312 313 312 311 314 315 314 313 313 314 315 315 315 315 314 313 314 313 314 316 320 319 317 318 317 316 317 318 318 319 318 317 317 319 321 321 322 326 327 328 329 329 330 331 334 335 333 332 331 327 323 324 327 327 328 328 327 325 325 325 324 323 322 320 319 319 318 318 320 320 320 319 320 319 318 320 320 319 319
310 309 313 314 313 314 314 313 314 313 311 313 312 312 314 316 315 313 314 314 314 315 315 313 313 313 315 317 317 318 318 316 316 316 316 317 317 318 319 320 320 321 322 323 324 326 328 328 328 328 331 333 333 331 330 330 327 324 326 327 325 328 328 326 325 325 326 325 324 323 321 320 320 319 318 319 320 320 319 320 319 317 319 320 320 320
312 311 313 313 312 314 314 313 314 313 312 311 311 312 314 314 314 314 314 313 313 315 314 312 312 312 311 313 316 317 317 316 315 315 315 316 318 318 319 320 321 322 323 323 324 325 326 327 327 328 328 330 331 329 329 328 327 326 326 326 324 325 326 326 325 325 326 326 325 324 322 321 320 319 319 319 320 320 319 320 320 318 317 319 320 321
314 311 313 313 313 314 313 313 313 313 313 311 311 312 312 311 312 312 313 313 314 315 314 312 311 310 309 311 314 315 317 317 315 314 315 316 317 319 319 320 321 322 323 323 323 324 325 325 326 327 327 328 329 328 328 328 328 328 327 326 325 325 324 324 326 325 325 326 326 325 323 322 321 321 320 319 320 320 320 320 320 319 318 318 320 321
313 313 313 314 312 313 312 312 311 311 313 312 312 313 311 311 311 311 312 313 313 315 315 314 312 311 312 315 315 316 317 316 316 316 315 316 317 319 320 320 321 321 323 321 322 323 324 324 325 325 325 326 327 328 328 328 328 328 326 324 325 325 325 324 325 325 325 325 326 326 324 323 323 322 321 321 320 320 321 320 321 320 318 318 319 321
313 314 315 314 312 312 311 312 312 312 312 312 311 311 311 313 312 312 312 310 311 313 314 315 313 312 315 317 316 317 317 317 317 316 316 316 316 318 320 321 321 321 322 321 321 322 322 323 323 323 324 325 326 326 327 326 326 326 326 325 326 326 326 325 325 325 325 325 325 325 325 324 324 324 323 322 321 320 321 320 319 319 319 319 318 320
313 313 313 312 311 310 310 312 313 312 313 313 312 311 313 316 316 315 314 314 314 313 313 315 315 314 318 318 315 317 319 318 317 317 317 315 316 318 320 321 321 321 321 321 321 320 320 322 322 322 323 323 323 324 324 324 324 325 325 326 326 326 326 326 325 325 325 325 324 324 324 323 324 324 322 321 321 320 321 321 320 320 320 319 319 319
315 313 313 312 311 311 312 312 313 312 312 312 314 313 313 315 313 313 313 315 315 313 313 316 317 318 321 319 315 316 317 317 317 318 318 317 318 319 319 319 320 320 320 320 320 320 320 321 321 321 322 322 322 322 321 321 321 321 323 324 325 326 326 325 325 326 325 325 325 324 324 323 323 324 324 324 324 322 320 320 320 320 319 319 320 319
314 312 312 312 311 310 311 311 310 311 311 311 312 312 312 312 311 312 312 313 313 311 311 314 315 318 321 321 319 317 315 315 317 318 318 318 319 319 318 319 319 320 319 319 319 319 320 319 320 319 319 320 320 321 320 320 318 318 318 320 321 323 325 325 325 325 325 325 325 325 325 325 325 325 325 325 325 325 323 322 322 321 319 317 318 319
313 312 312 312 311 311 311 310 309 310 310 310 311 312 312 313 313 314 313 312 313 312 311 313 315 317 321 320 318 316 315 315 316 317 318 319 319 318 318 319 319 319 319 318 318 319 318 317 317 317 317 317 318 318 318 318 317 316 316 317 319 320 322 324 325 325 324 325 325 325 325 326 325 326 327 326 326 325 324 323 323 322 321 320 320 320
313 313 313 313 313 313 313 311 310 311 311 311 312 312 313 313 313 314 312 312 314 314 314 315 314 316 318 318 317 317 315 314 316 316 316 317 318 318 319 319 319 319 319 317 318 318 318 317 315 315 315 314 315 315 315 316 315 315 315 316 317 318 320 322 324 325 325 325 326 325 325 326 325 326 326 326 326 325 324 323 322 322 322 322 321 320
312 312 312 312 313 313 312 311 310 312 311 311 311 311 312 313 314 314 313 313 314 315 315 315 315 316 316 316 319 319 317 315 316 316 315 315 317 319 321 320 318 318 318 317 318 317 317 317 316 315 315 314 314 314 314 314 314 313 314 314 315 315 317 318 320 322 321 322 323 323 323 324 324 324 324 323 322 322 323 323 322 322 322 321 321 320
309 310 311 311 311 310 310 310 310 310 310 310 310 310 312 312 312 314 314 314 314 314 314 314 315 316 315 314 316 316 316 316 316 316 317 317 318 319 320 319 317 316 317 316 317 316 316 316 316 316 315 314 314 314 314 314 314 313 313 313 314 314 314 315 316 317 317 316 317 317 317 318 319 321 321 321 321 321 321 322 322 322 322 321 321 321
309 310 310 311 310 310 309 309 309 310 310 310 310 310 311 311 312 313 314 313 313 314 314 314 315 316 314 313 314 314 315 315 314 316 317 318 318 318 319 319 316 315 315 316 316 317 316 315 316 316 315 314 314 314 314 314 314 314 313 313 313 313 313 313 313 314 314 314 314 314 314 314 315 317 318 318 319 319 319 320 321 321 322 322 322 322
310 311 310 310 310 310 310 310 310 310 310 310 310 310 310 310 311 313 313 312 313 313 313 314 317 317 314 313 313 313 314 314 314 315 315 315 315 315 317 317 316 314 314 314 315 316 316 315 315 315 314 313 313 313 313 313 313 313 313 312 312 311 312 312 311 311 311 311 311 312 312 313 314 315 316 316 318 318 317 319 320 320 320 322 323 323
311 311 311 311 311 311 310 309 309 309 309 309 308 309 309 310 311 312 312 313 313 314 313 316 318 317 314 312 313 313 313 313 314 314 314 314 314 314 314 315 315 315 313 313 314 314 315 314 314 314 313 313 312 312 312 312 312 312 312 311 311 311 310 310 310 310 310 309 309 310 310 311 311 312 312 313 316 317 317 318 320 320 320 321 322 322
310 310 311 311 311 311 310 309 309 309 309 309 309 310 310 310 312 312 313 313 314 314 314 315 315 314 312 313 313 313 313 313 313 314 314 314 314 314 314 313 314 314 314 313 313 313 314 313 314 314 313 312 312 312 311 311 311 312 312 310 310 310 309 309 309 309 309 309 309 309 310 310 310 310 311 311 312 313 315 316 317 318 318 320 320 320
310 310 310 310 311 310 309 308 309 309 309 310 310 311 311 311 312 312 313 313 314 314 314 313 312 312 312 312 312 312 313 313 313 313 314 314 314 314 315 314 313 313 313 313 313 313 313 313 313 313 312 311 311 311 310 310 311 311 311 310 310 310 310 310 310 310 310 310 310 310 310 310 310 310 310 311 311 311 311 313 315 316 317 318 319 319
309 309 309 309 310 310 309 309 310 310 310 310 310 310 311 311 311 311 312 312 312 311 311 311 311 311 311 311 311 312 312 312 312 313 313 314 313 313 314 314 314 314 314 315 313 312 313 313 313 312 311 310 310 310 309 309 310 311 310 310 310 310 310 310 310 311 310 310 310 310 310 310 310 310 310 310 310 310 310 311 312 314 317 317 317 318
308 308 308 308 308 309 308 308 309 309 310 309 309 310 310 309 310 310 310 310 309 309 310 310 310 310 310 310 311 311 311 311 310 310 311 311 311 311 312 312 313 314 315 315 315 315 314 313 312 311 310 310 310 309 308 309 310 310 309 310 310 310 309 309 309 310 310 309 309 309 310 311 310 310 310 310 310 310 310 310 311 312 315 316 316 316
308 307 308 307 307 308 308 307 309 309 308 308 310 311 311 310 311 311 311 310 309 309 309 309 309 309 309 309 309 309 309 309 309 309 310 309 309 309 309 309 312 314 314 313 314 313 312 311 310 310 310 310 309 308 308 309 309 309 309 309 309 309 309 309 309 309 309 309 308 309 310 311 310 310 310 310 310 310 310 310 311 312 314 315 316 316
308 307 308 307 307 307 307 308 308 308 308 310 311 311 310 310 311 311 310 310 309 309 308 308 308 308 308 308 308 308 308 308 308 309 309 308 308 308 307 308 311 313 312 311 312 312 311 310 309 309 309 309 308 309 308 309 309 309 309 309 309 309 309 308 308 308 308 308 307 308 309 310 310 310 310 309 309 309 310 310 310 311 313 315 316 316
307 307 307 307 307 307 307 307 307 308 308 310 311 309 308 308 309 309 309 308 308 307 307 307 307 307 306 306 306 307 307 307 308 309 308 307 307 307 306 307 308 309 309 309 310 310 310 309 308 308 308 308 308 307 307 307 308 308 308 308 308 309 309 308 308 308 308 308 307 307 308 309 309 309 309 309 309 309 309 309 310 310 312 314 315 315
307 307 307 307 306 306 306 307 307 307 309 310 309 307 307 306 306 307 307 307 306 305 306 306 305 305 305 305 305 306 306 307 307 307 306 305 306 306 306 306 307 307 308 308 308 308 308 308 307 307 307 307 306 306 307 307 307 308 308 308 308 308 308 308 308 308 308 307 307 306 307 307 308 309 309 309 310 310 310 310 309 310 311 313 314 314
306 306 306 306 306 306 307 306 306 307 308 308 307 305 306 306 305 306 307 306 304 304 305 304 304 304 304 304 304 305 305 306 306 306 305 305 305 306 306 305 305 305 306 306 306 306 306 305 305 306 306 306 306 306 306 307 307 307 307 307 307 307 307 307 307 307 307 307 307 306 306 306 307 308 308 309 310 310 310 310 310 310 310 312 313 314
306 306 305 305 305 306 307 306 306 307 307 306 305 304 304 305 305 305 305 304 303 303 303 303 303 303 303 303 304 304 304 305 305 304 304 304 305 305 305 305 305 305 305 305 305 304 304 304 304 305 305 305 305 305 306 306 306 306 306 306 306 306 307 307 307 307 307 307 306 306 305 305 306 307 307 309 310 310 310 310 310 309 310 311 312 313
306 305 306 305 305 305 305 305 305 306 305 304 303 303 303 304 304 303 303 302 302 302 302 302 302 302 302 302 303 303 303 303 303 303 303 303 303 304 304 304 305 305 304 304 304 304 304 304 304 304 304 304 304 305 305 305 305 306 306 306 306 306 307 306 306 306 306 306 306 306 306 305 305 306 307 307 308 309 310 310 310 309 309 310 311 313
305 304 304 305 304 304 304 304 305 305 304 303 302 302 302 303 303 302 301 301 301 301 301 301 301 302 302 301 301 302 302 302 302 302 302 302 302 303 303 304 304 304 304 304 304 304 304 304 304 304 304 304 304 304 304 304 304 304 305 306 306 306 306 306 306 306 306 306 305 306 305 305 305 305 306 307 307 308 309 310 310 310 310 311 313 313
303 303 303 303 303 303 303 304 304 303 302 302 301 301 301 301 301 301 300 300 300 300 300 300 300 301 300 300 300 301 300 301 301 301 301 301 301 302 302 303 303 303 303 303 303 303 303 303 303 303 303 303 303 303 303 303 303 304 304 305 305 305 306 306 306 306 306 306 306 305 305 305 305 305 305 306 307 307 308 310 311 311 311 312 313 313
302 302 302 301 301 301 302 302 303 302 301 301 301 300 300 300 300 300 300 299 299 299 299 299 299 299 299 299 299 299 299 300 300 300 300 301 301 301 301 301 301 301 302 302 302 302 302 303 303 303 303 303 303 303 303 303 303 304 304 304 304 305 305 305 306 306 306 306 306 305 305 305 305 305 305 306 307 307 308 309 311 311 312 312 312 312
301 301 300 300 300 300 300 300 301 300 300 300 299 299 299 300 299 299 299 299 299 299 299 299 299 299 299 299 298 298 298 299 299 299 299 300 300 300 300 300 300 300 300 301 301 301 302 302 302 302 302 302 303 303 303 302 303 303 303 303 304 304 305 305 305 305 305 305 305 305 305 306 305 306 306 306 307 307 307 309 310 311 311 311 311 310
300 299 299 299 299 299 299 299 299 299 299 299 298 299 299 299 299 299 299 299 299 299 299 299 299 299 298 298 298 298 298 298 298 298 299 299 299 299 300 300 300 300 300 300 300 300 301 301 301 302 302 302 302 302 302 302 302 303 303 303 303 303 304 304 304 304 304 305 305 304 305 305 305 305 306 306 306 307 307 308 310 310 309 310 310 309
299 298 298 298 298 298 298 298 298 298 298 298 298 298 298 298 298 299 299 299 299 299 299 299 299 299 298 298 298 298 299 299 299 299 299 299 299 299 299 300 300 299 300 299 299 300 300 301 301 301 301 301 301 301 302 302 302 302 303 303 303 303 303 303 303 303 303 303 303 303 303 303 303 304 305 305 306 307 308 308 308 308 308 308 308 308
299 298 298 298 298 297 298 298 298 298 298 298 298 298 298 298 298 299 299 299 299 299 299 299 299 299 299 299 299 299 299 299 299 299 299 299 299 299 299 299 300 300 299 299 299 300 300 300 301 300 301 301 301 301 301 302 302 302 303 302 302 302 302 302 302 302 302 302 303 303 303 303 303 304 304 305 307 307 307 307 307 307 307 307 307 307
298 298 298 298 297 297 297 298 298 298 298 298 298 298 298 298 299 299 299 298 299 299 299 300 300 299 300 300 300 299 299 299 300 300 300 299 299 300 300 299 299 299 299 300 300 300 300 300 301 301 301 301 301 302 302 302 302 302 302 302 302 302 302 302 302 302 302 302 302 303 303 303 304 303 304 306 306 305 305 306 306 306 306 306 306 304
298 297 297 297 297 297 298 298 298 298 298 298 298 298 298 299 299 299 299 299 299 299 299 299 299 299 299 299 300 300 299 299 300 301 300 299 300 300 300 300 300 300 300 300 300 300 301 301 301 301 301 301 301 302 301 301 302 302 302 302 302 302 302 302 302 302 302 302 302 303 303 303 303 304 305 306 305 304 303 303 303 303 303 303 302 301
Wind_Speed
6 6 6 8 6 3 5 2 4 8 10 12 12 7 7 6 7 8 3 9 6 5 8 9 11 14 11 9 9 7 7 9 8 7 5 10 13 15 15 16 16 15 15 16 23 24 23 21 19 21 20 17 20 20 20 19 18 18 17 17 16 14 14 12 11 9 8 9 7 7 8 7 6 7 9 11 11 10 9 8 8 8 6 6 5 4
4 6 8 8 1 3 3 6 6 7 9 10 10 8 5 6 7 4 3 9 7 3 5 6 11 12 9 10 10 6 6 7 7 7 6 7 9 8 9 16 17 13 13 14 18 22 22 21 21 21 22 21 19 19 20 20 20 19 19 18 17 16 15 12 10 8 7 8 7 6 7 8 9 10 12 13 11 10 9 8 8 8 7 7 5 5
5 8 12 9 4 4 1 5 6 7 8 8 7 7 5 7 5 5 7 5 6 3 5 7 9 10 8 11 9 4 6 7 5 5 9 8 7 7 6 13 17 12 12 12 12 17 18 20 23 18 18 22 21 19 20 20 21 21 20 20 19 17 15 12 11 9 8 9 9 8 8 11 14 15 16 15 12 11 10 9 8 8 8 7 6 6
6 5 8 5 4 2 3 3 5 6 6 7 6 7 6 7 8 2 5 3 1 1 4 8 7 8 9 8 6 7 10 7 3 7 12 9 4 6 8 7 16 14 12 12 10 13 12 16 22 17 16 20 21 21 20 20 21 21 21 21 20 19 17 14 13 12 11 10 11 11 11 13 15 14 15 14 12 10 9 9 9 9 9 8 8 9
11 3 4 5 4 2 5 4 5 5 5 7 7 9 9 9 9 5 4 4 3 3 3 9 8 6 10 7 6 10 10 7 6 12 12 7 5 7 6 3 13 15 12 12 12 11 10 13 18 18 17 18 20 23 22 21 22 21 21 22 21 21 19 18 16 14 15 14 13 12 12 13 14 12 13 12 10 8 8 9 9 9 10 9 9 10
9 2 6 5 1 3 5 5 6 6 5 7 9 11 13 13 12 7 3 6 1 5 5 7 7 5 8 8 8 11 8 8 9 11 8 6 8 8 6 4 7 13 12 11 10 9 8 11 16 19 19 17 20 25 25 22 23 22 22 23 23 23 22 21 19 17 17 17 15 14 14 15 14 11 12 12 10 9 10 9 9 10 10 10 10 10
3 1 2 2 3 5 7 7 8 7 6 6 4 6 12 12 13 11 5 2 3 5 4 7 6 5 6 8 9 12 11 11 10 9 8 8 8 7 7 6 4 9 11 8 8 8 7 9 12 16 19 19 19 24 24 23 24 26 25 26 26 24 25 23 21 20 19 18 17 16 16 15 14 13 13 12 11 11 10 9 9 10 10 10 10 10
3 4 2 2 5 6 7 7 8 9 8 5 2 5 10 10 11 12 9 6 6 6 3 7 8 6 5 7 9 12 10 12 10 10 9 9 10 10 7 7 6 8 11 10 11 12 11 12 14 16 20 23 23 24 23 25 27 28 27 28 28 26 26 26 23 22 21 20 20 18 16 15 14 15 16 13 12 12 10 10 9 10 10 9 10 10
3 5 6 4 8 6 7 9 10 11 10 5 3 6 9 9 11 11 9 8 6 6 6 7 8 6 6 7 8 12 8 10 10 11 10 9 9 9 8 8 8 7 9 10 13 13 14 16 19 19 21 26 27 27 27 30 31 28 29 28 29 27 27 27 25 24 22 21 21 19 16 16 17 17 16 14 13 13 11 11 10 10 10 10 10 10
4 6 4 6 8 7 10 12 11 12 9 5 4 7 9 10 10 9 8 7 5 5 7 7 7 6 6 6 7 9 8 8 8 8 9 8 5 2 2 3 1 2 0 3 5 7 10 17 23 26 25 26 29 31 32 31 30 26 31 30 29 29 28 28 27 25 24 22 21 20 17 17 21 18 16 16 14 13 12 11 11 11 10 10 10 10
7 3 2 5 8 7 10 11 8 9 6 4 3 6 8 9 9 7 5 6 5 6 8 11 12 9 6 6 5 6 5 8 7 8 9 9 5 2 3 1 2 1 2 2 2 3 4 5 12 20 24 28 32 34 34 31 26 24 28 31 30 30 29 30 29 26 25 24 22 20 19 19 22 20 18 18 16 14 13 12 12 11 11 10 10 10
8 5 5 7 9 9 11 10 7 8 7 5 4 6 7 6 5 5 4 5 6 6 7 11 13 11 8 5 2 3 2 7 6 7 7 9 8 5 4 2 2 3 2 2 4 5 6 4 3 6 13 22 29 30 31 32 29 26 27 32 32 30 31 31 30 28 25 25 24 21 19 20 22 21 20 20 17 15 14 13 13 13 12 11 9 9
7 7 8 9 9 8 10 7 6 8 7 6 6 5 6 5 4 5 5 5 7 6 5 7 8 8 7 4 4 1 2 7 5 2 7 9 9 8 6 4 5 4 1 3 5 5 4 2 3 7 9 12 20 25 27 30 32 28 27 31 33 30 32 32 31 30 27 25 24 22 20 20 22 21 20 19 17 16 15 14 14 15 14 13 11 9
5 8 10 8 8 9 8 6 6 6 5 6 6 5 5 5 5 6 5 5 6 6 6 5 5 5 5 5 6 5 5 7 6 6 8 8 8 7 6 5 5 4 3 5 6 5 4 3 2 5 10 13 15 21 21 22 24 20 18 22 30 30 31 33 32 30 28 25 24 23 22 20 21 21 19 19 18 16 16 15 15 15 15 14 13 12
6 6 8 9 5 9 8 8 8 7 5 6 6 6 5 4 5 5 4 5 5 5 5 5 4 3 3 4 4 4 7 6 5 7 7 8 7 5 4 4 6 6 6 5 5 6 5 4 5 4 6 6 8 15 13 9 11 10 13 15 18 27 29 30 32 30 27 25 24 23 23 21 21 21 19 18 18 16 16 16 15 14 15 15 14 14
8 6 6 8 2 4 5 8 8 9 7 4 5 6 4 4 5 5 5 6 5 5 5 3 3 2 2 3 2 7 9 6 7 8 7 7 7 6 4 4 5 7 6 5 6 7 6 5 5 5 5 8 10 9 6 6 6 13 17 17 15 20 28 27 28 29 27 25 23 24 24 22 21 21 19 18 19 17 15 16 15 13 13 15 15 15
6 5 4 8 5 4 8 8 6 6 4 2 3 4 4 5 6 5 5 5 5 6 5 4 5 4 3 5 4 7 7 8 9 9 9 9 8 7 5 4 6 7 6 6 6 6 6 6 5 5 9 12 10 7 6 6 9 16 21 17 19 13 19 23 25 26 26 24 23 23 24 23 22 21 20 17 19 19 15 15 16 12 11 14 15 16
3 5 3 4 6 8 9 7 7 6 5 5 4 2 2 5 6 4 4 5 5 6 5 4 6 7 6 4 6 9 9 9 10 10 10 9 8 7 6 6 7 7 7 7 6 6 7 7 7 8 8 9 6 6 4 4 9 12 15 14 15 12 6 12 18 22 22 22 22 22 23 23 21 21 20 17 17 19 16 14 15 14 11 12 14 16
1 5 7 7 9 8 7 4 6 8 9 9 7 4 3 4 5 4 4 4 5 5 5 6 8 8 6 3 5 11 11 9 10 10 10 11 10 8 7 7 8 7 7 7 6 6 6 6 9 10 7 9 7 6 5 2 5 7 9 11 13 13 8 7 11 16 19 18 18 20 20 21 19 18 18 16 15 18 18 15 14 15 14 12 13 15
3 4 5 6 11 10 5 5 5 6 8 10 9 6 5 4 4 4 4 3 4 6 5 6 8 5 2 3 5 9 10 10 11 10 10 12 10 9 8 7 7 7 6 6 7 7 7 7 10 11 10 11 9 8 8 3 3 6 7 8 12 15 13 9 8 11 16 16 14 16 17 18 17 15 15 13 13 16 18 17 14 14 16 15 14 15
3 3 4 6 9 9 4 4 5 5 5 6 6 6 5 4 4 5 5 4 5 6 5 5 6 2 2 1 2 3 6 10 10 7 7 9 9 9 10 7 7 7 6 7 7 7 8 8 9 10 10 11 10 11 10 6 5 8 7 7 11 11 10 9 8 9 12 12 12 14 15 14 13 13 13 12 11 12 14 17 17 15 15 16 16 16
2 3 4 6 6 7 6 6 8 7 6 6 5 5 5 5 3 3 4 4 5 5 5 6 5 1 1 1 1 2 2 5 7 7 6 8 10 10 10 8 7 7 6 7 7 7 8 8 10 11 10 10 10 11 12 11 8 8 9 11 15 13 9 10 10 9 8 7 9 12 13 13 11 10 13 14 13 14 15 16 17 15 14 16 16 16
2 2 5 6 6 8 10 10 12 11 8 7 7 6 6 6 4 3 4 4 4 5 5 5 3 1 2 2 2 2 3 1 3 5 4 7 10 10 10 9 7 7 7 7 8 7 7 9 11 12 12 12 12 11 11 12 13 11 10 12 15 15 13 12 10 8 8 6 5 7 9 11 10 8 10 12 12 15 17 17 17 16 15 15 14 14
2 2 5 7 7 8 11 13 15 13 9 7 7 7 7 8 8 7 7 5 4 6 6 5 4 1 2 5 5 3 2 2 4 4 5 7 10 9 9 10 7 7 8 8 7 6 7 11 12 12 13 12 12 12 12 12 12 13 13 13 14 14 13 12 10 10 10 8 4 4 5 7 6 5 6 8 8 10 12 12 13 14 13 12 13 13
1 3 4 6 6 6 8 8 9 9 7 5 5 5 6 9 10 9 8 6 5 7 8 7 6 1 1 2 2 3 3 2 4 5 6 7 9 8 7 8 7 6 7 7 7 6 7 9 10 11 12 13 13 13 12 12 11 11 11 12 13 13 13 13 12 11 12 11 9 7 4 4 4 3 4 5 6 8 9 7 5 6 8 10 11 10
3 3 3 5 5 5 6 4 2 3 4 5 6 6 7 9 10 9 7 5 5 7 7 7 6 1 2 2 1 4 6 4 4 5 6 7 8 8 6 7 7 6 6 7 6 5 5 6 8 10 12 13 14 14 13 13 12 12 12 12 12 12 12 14 15 15 15 14 14 12 9 6 3 3 5 5 5 7 10 10 7 5 7 10 11 13
4 4 6 8 8 8 9 9 9 9 7 8 8 9 9 7 8 8 6 6 5 6 6 7 7 5 2 1 4 6 7 7 5 4 4 5 7 7 5 6 7 5 5 6 5 4 5 5 6 9 10 12 13 14 14 14 13 13 14 13 13 13 12 12 12 14 15 14 14 13 11 9 5 2 2 3 4 5 8 10 11 10 10 12 13 15
3 5 8 10 12 13 14 15 15 14 13 13 12 13 12 11 10 8 6 8 8 7 7 7 8 9 8 7 5 6 6 7 6 5 5 4 3 8 7 6 8 8 8 7 6 6 7 6 5 7 9 11 13 14 14 14 14 14 14 14 13 13 13 13 13 13 12 12 12 11 10 9 8 5 4 3 3 3 4 6 6 8 10 14 16 17
4 6 8 10 13 14 15 16 15 14 14 14 14 15 15 14 12 10 10 12 10 8 9 9 10 10 11 12 10 9 8 7 7 6 4 4 1 5 8 9 9 9 9 9 8 7 7 6 5 5 8 10 12 13 13 13 13 13 13 13 12 12 12 12 13 14 13 13 11 9 8 7 7 6 4 3 3 3 4 4 3 4 7 11 16 20
4 5 6 9 12 14 14 15 14 14 14 14 16 17 15 14 14 13 12 14 14 13 13 13 12 10 9 11 11 10 10 10 9 7 6 6 5 3 5 8 9 9 9 8 8 8 6 5 5 5 7 10 11 12 12 12 12 12 13 12 11 11 10 10 11 12 11 11 10 9 8 7 6 5 3 3 3 3 3 3 4 4 7 11 15 17
3 3 4 6 9 11 12 13 13 14 15 15 17 17 16 16 16 14 12 12 13 13 13 11 10 8 8 10 10 9 9 10 9 9 9 8 7 8 7 8 9 9 9 8 7 9 7 4 5 5 6 7 8 10 10 10 10 11 11 10 9 8 7 6 6 7 7 7 6 6 6 5 5 5 3 2 2 1 2 3 4 5 8 11 12 11
3 2 5 6 7 8 10 12 13 14 15 17 16 15 16 15 12 10 10 10 9 10 11 10 8 6 6 9 10 9 9 9 11 12 11 8 7 7 7 10 12 10 9 10 6 7 8 6 5 5 5 6 7 8 8 8 9 10 9 8 8 6 5 5 5 5 4 4 4 4 4 3 3 3 3 2 1 0 1 2 3 5 6 7 8 8
4 4 5 6 7 8 10 13 13 12 12 11 9 8 10 12 10 9 10 10 9 7 7 7 6 6 8 9 9 10 10 10 11 11 11 11 11 10 8 6 9 9 9 11 7 8 9 7 7 7 3 2 4 6 6 6 8 9 8 7 8 8 8 9 8 8 7 5 4 4 3 3 2 3 3 2 1 1 2 4 5 5 6 7 7 7
6 7 6 5 6 8 11 12 11 10 8 7 6 5 6 8 9 9 10 11 9 7 7 7 7 8 10 9 7 7 8 9 9 9 10 11 10 10 12 11 6 3 5 7 4 6 6 5 11 10 2 2 3 4 2 3 6 6 5 6 7 7 6 8 8 8 8 7 6 6 5 4 3 2 1 1 1 2 3 5 6 7 7 7 8 8
7 6 5 5 6 8 9 9 9 9 6 6 7 6 5 6 8 9 10 11 10 9 11 11 8 8 10 10 7 4 5 7 9 8 6 7 10 11 11 12 10 10 8 6 5 4 5 10 13 9 3 2 3 2 3 3 5 5 6 6 6 5 4 4 5 6 6 5 5 5 6 5 4 2 1 1 2 3 4 5 7 8 8 8 9 9
7 6 5 5 6 7 7 7 8 8 8 9 8 10 10 6 7 7 7 9 9 10 11 11 9 8 9 12 10 8 7 7 8 9 5 6 8 10 11 12 11 9 6 7 9 8 9 10 8 6 4 3 4 5 5 2 3 3 4 5 5 5 5 4 4 4 5 5 4 5 5 5 3 2 2 2 2 3 5 6 7 8 8 9 9 9
8 6 5 5 6 6 7 7 8 9 10 8 4 10 10 8 8 8 5 7 9 10 10 10 9 9 10 12 13 12 11 8 5 6 8 9 8 7 8 10 9 8 6 7 10 8 6 5 2 1 3 1 4 6 5 3 2 3 3 4 5 5 6 5 5 6 5 5 5 5 5 4 4 3 3 3 3 4 4 5 6 7 8 9 9 10
8 6 4 5 6 6 7 7 7 9 7 2 5 7 7 7 8 7 4 4 7 10 10 9 10 9 9 10 12 12 10 7 3 4 10 13 12 9 8 7 7 7 7 7 7 3 2 4 4 4 3 2 3 6 8 7 6 5 5 6 6 6 6 6 7 6 5 5 5 4 4 5 5 4 4 4 5 5 4 5 6 8 9 9 10 11
7 4 4 6 6 6 6 6 6 6 3 3 5 5 6 6 7 7 4 2 7 11 10 9 9 10 10 10 11 10 7 5 3 4 8 13 13 9 7 8 11 10 4 2 1 4 7 5 3 3 6 7 8 9 9 8 7 7 7 8 7 7 7 6 6 5 5 5 5 5 5 6 5 5 6 6 6 5 5 6 7 8 9 10 11 11
5 4 5 7 7 7 7 7 6 3 1 5 7 8 8 7 6 5 4 1 8 11 10 10 10 10 10 9 9 8 6 5 5 6 9 12 12 10 10 10 13 16 12 7 6 7 9 10 8 4 6 10 13 13 10 8 9 10 10 9 9 9 9 8 8 8 7 7 7 7 8 7 7 8 8 7 7 6 6 7 7 9 10 10 11 11
3 3 5 6 7 7 6 7 6 1 2 4 7 8 9 8 4 3 3 3 7 10 10 10 10 9 9 9 7 6 6 7 8 8 10 12 11 11 13 13 12 14 14 13 15 17 15 12 10 9 10 13 14 13 11 11 12 12 11 11 11 11 11 10 10 9 9 9 9 10 10 10 10 10 9 8 8 7 8 8 9 10 11 12 12 11
1 2 4 5 6 6 5 7 7 2 1 3 7 8 7 5 3 2 4 6 8 9 9 10 10 9 9 9 7 7 8 9 11 11 11 12 12 10 12 14 13 12 13 15 16 17 16 14 13 13 15 15 15 14 14 14 14 14 14 13 12 12 12 12 11 11 11 12 12 12 13 13 12 11 10 9 9 9 10 10 11 12 13 14 11 7
1 2 4 4 5 5 6 7 6 3 2 4 7 7 5 4 4 4 6 7 8 9 10 10 10 9 9 9 9 9 10 11 12 12 12 13 13 12 13 15 15 14 15 16 17 17 17 17 16 17 17 17 16 16 17 17 17 17 16 15 15 14 14 14 14 14 13 14 14 14 14 14 14 13 12 11 12 12 11 11 12 12 13 12 8 8
0 1 5 3 1 3 5 5 2 2 3 6 7 6 5 5 6 6 7 8 8 9 9 9 9 11 11 10 10 11 11 12 12 13 13 14 13 13 14 16 17 17 17 17 18 19 19 19 18 19 20 20 19 19 19 20 20 18 17 17 17 16 16 16 15 15 15 16 16 16 16 16 16 16 15 14 15 15 14 13 13 11 8 7 9 12
1 2 4 3 2 2 5 5 3 3 5 7 6 6 8 9 8 9 10 10 9 9 9 9 10 11 12 12 12 12 11 12 13 13 14 15 15 15 16 18 19 20 19 20 21 21 21 22 22 22 22 23 22 21 20 20 20 19 18 18 17 16 16 16 16 16 17 16 16 16 16 16 16 16 16 16 16 16 15 12 10 7 5 8 10 12
6 8 6 4 4 6 7 7 8 8 9 9 8 8 9 10 10 10 10 9 9 9 9 10 11 12 13 13 13 13 13 14 15 15 15 16 16 16 18 20 22 23 23 23 23 23 23 24 24 24 23 23 24 23 21 20 21 22 21 21 19 18 18 18 19 20 20 19 19 18 17 16 16 15 15 15 15 15 14 9 6 8 9 10 11 12
8 9 6 5 6 7 6 7 9 10 11 11 11 10 10 10 11 11 10 10 11 11 11 12 13 14 15 15 16 16 16 17 17 16 16 16 16 17 18 20 22 24 25 25 24 24 24 24 24 23 22 21 22 22 21 21 22 23 23 23 22 22 23 24 23 21 20 20 21 21 19 17 16 14 14 15 14 12 10 6 6 11 12 12 13 13
4 6 4 6 7 7 7 8 10 12 12 11 9 8 9 11 13 13 12 12 13 13 13 13 14 14 14 15 16 17 18 18 18 17 16 15 15 15 17 20 24 25 25 26 26 24 22 22 23 22 21 20 20 20 20 20 21 22 23 23 21 21 23 22 20 19 19 19 18 17 17 17 15 14 15 15 10 6 4 4 6 10 13 13 14 16
5 5 5 6 6 7 7 8 10 10 10 9 10 11 11 12 13 14 14 13 14 14 14 14 14 14 14 14 15 16 17 17 16 17 17 15 14 15 18 22 25 27 26 26 26 24 21 20 21 23 23 22 22 21 21 22 22 22 23 23 23 24 24 23 20 20 19 19 18 17 17 17 16 16 15 11 5 4 5 6 8 9 10 11 14 18
6 6 5 5 5 6 6 8 10 9 8 9 11 13 13 13 13 14 14 13 14 14 13 14 14 14 15 15 15 15 15 14 14 15 16 15 15 17 20 22 24 26 26 24 24 25 24 22 22 23 24 24 23 23 23 24 23 23 23 24 25 25 25 24 22 20 19 18 17 17 17 17 17 17 14 7 10 11 10 9 8 8 9 10 12 16
3 4 4 5 6 7 9 11 9 7 8 10 11 13 14 13 14 14 13 13 14 14 14 14 15 16 16 16 18 17 15 14 15 15 14 15 17 19 21 22 21 22 24 23 21 21 22 22 21 22 23 23 23 23 24 24 24 24 24 25 25 24 23 22 21 20 19 17 17 18 19 18 17 16 11 9 15 16 14 14 11 9 9 11 13 16
Wind_Direction
223 233 233 240 235 242 252 257 349 337 333 324 313 280 239 248 238 247 190 139 179 225 211 228 237 235 227 220 214 186 193 204 233 262 185 167 175 181 183 176 171 166 172 173 166 171 173 180 180 169 177 170 153 154 150 154 157 153 153 146 145 145 139 140 143 147 144 136 127 116 111 100 94 106 105 93 87 86 81 79 81 80 87 90 89 98
225 252 247 243 234 62 1 2 352 324 320 312 313 310 275 254 238 232 182 145 149 250 256 255 255 242 226 237 238 197 205 212 209 263 259 208 207 215 190 168 166 163 168 169 161 168 175 177 178 174 173 164 155 157 160 166 164 159 157 151 150 151 147 150 149 143 129 122 122 122 126 110 87 97 109 100 90 88 84 76 79 81 83 87 88 93
214 242 252 235 120 94 38 5 329 312 310 297 293 295 295 276 257 88 84 136 144 177 258 266 261 260 232 227 248 225 225 241 200 239 268 240 214 242 229 162 160 165 164 165 162 169 179 176 172 174 169 162 158 162 171 177 171 166 161 154 155 155 153 152 143 134 114 104 108 103 105 102 88 88 97 98 92 90 88 82 80 84 82 82 86 94
232 219 248 234 93 44 320 329 304 306 288 274 279 273 271 262 254 136 114 172 181 140 256 276 276 292 279 237 250 253 229 230 191 225 256 258 205 220 248 172 157 165 160 163 171 172 178 171 167 169 162 156 155 165 186 191 178 172 166 159 159 159 157 150 141 142 134 118 109 99 98 103 99 94 93 93 91 88 88 85 81 78 80 78 70 77
261 262 103 90 67 360 310 296 270 281 268 250 248 255 266 263 262 269 124 115 349 318 281 288 286 286 280 246 232 254 227 191 209 228 234 244 226 212 239 183 153 158 156 167 177 173 167 162 169 172 166 160 160 173 196 200 186 179 171 166 163 161 159 152 147 149 145 134 121 112 107 102 101 103 102 100 100 101 94 87 85 80 80 83 76 75
258 304 103 117 162 225 248 262 239 235 258 252 233 237 255 270 282 287 116 113 276 273 229 245 266 250 248 230 217 243 224 183 222 237 222 223 240 221 202 206 168 152 154 171 170 160 157 162 170 172 169 167 168 184 202 205 194 184 173 168 165 164 161 155 154 155 148 140 134 129 122 119 124 131 126 122 123 117 105 94 91 88 85 87 86 83
208 194 192 223 263 251 245 252 244 235 248 262 260 256 253 261 279 277 258 228 236 259 211 200 244 258 243 239 236 241 216 192 217 233 227 224 235 237 209 209 192 141 145 165 158 154 169 181 178 168 171 176 177 189 205 215 204 187 174 169 166 165 161 157 157 157 151 145 144 142 138 140 146 139 127 123 122 116 112 108 100 95 92 91 89 87
255 213 186 291 274 256 251 248 239 234 241 257 340 302 266 252 261 262 258 255 244 261 233 194 234 264 260 259 269 264 214 178 203 221 227 225 210 217 211 202 211 170 160 168 166 170 182 196 194 178 175 183 187 189 205 228 219 189 175 170 165 165 163 160 160 159 154 152 153 152 150 152 145 129 124 125 126 125 123 120 113 105 99 94 94 92
277 213 162 225 259 249 249 252 238 229 228 237 268 276 271 263 259 255 248 244 247 265 255 219 230 249 258 255 263 266 221 174 206 213 213 226 209 203 202 202 209 186 177 181 175 180 185 189 193 190 184 185 190 190 200 228 228 193 174 171 166 165 165 162 162 160 157 158 158 156 157 151 136 130 133 135 134 134 135 129 121 114 105 101 100 95
248 246 216 226 246 246 246 246 241 242 235 234 285 289 281 275 266 260 257 256 252 260 264 255 246 246 257 254 244 250 225 194 218 208 195 209 207 180 204 220 221 82 254 211 181 183 179 178 185 193 195 193 198 198 195 216 229 200 175 170 167 165 166 165 165 162 159 163 162 159 162 147 135 140 146 142 141 142 140 131 123 118 113 111 106 101
228 219 305 272 252 251 255 252 256 269 253 216 248 271 264 261 259 257 265 276 267 250 253 254 252 251 259 261 260 265 219 186 206 218 198 186 174 101 50 5 350 25 355 355 358 26 80 155 184 188 187 188 195 198 193 200 219 210 181 171 169 166 167 167 166 164 162 166 165 163 164 149 142 152 152 145 148 150 145 139 136 131 126 125 120 116
241 188 190 241 252 263 271 270 273 269 250 232 241 259 262 250 250 258 254 253 254 249 248 253 251 246 250 255 278 351 84 155 202 233 184 151 150 141 113 111 65 53 33 20 21 37 50 27 305 226 196 185 186 188 189 191 199 208 195 176 168 167 168 168 167 166 165 167 167 166 167 155 151 158 154 150 155 155 154 153 147 141 136 136 135 131
259 254 226 209 209 235 262 265 258 247 239 251 254 252 263 254 241 255 247 237 247 255 263 280 276 251 245 238 214 247 133 165 190 162 139 140 142 136 127 116 86 70 44 46 47 42 45 40 302 277 253 213 190 182 188 190 189 203 207 182 168 167 168 167 167 168 167 169 168 166 168 160 156 159 156 156 162 161 161 160 154 150 148 149 150 149
239 266 262 237 192 194 232 250 245 234 208 226 245 238 241 246 244 246 247 246 252 256 251 264 287 271 252 247 236 222 168 171 162 124 137 143 128 129 143 144 133 119 72 57 56 47 33 7 305 264 258 245 206 184 188 189 181 198 225 197 172 167 169 167 167 169 168 169 169 167 168 164 159 161 160 161 167 167 166 167 163 161 159 159 161 161
241 253 246 240 187 160 206 246 259 272 249 217 236 250 235 233 248 251 258 264 270 283 268 240 248 269 256 263 257 140 124 141 146 129 126 117 120 152 171 143 125 104 74 60 58 52 42 10 354 324 280 260 185 175 180 164 155 189 246 247 192 167 167 168 166 168 168 168 169 167 168 167 164 165 166 166 170 172 173 172 170 170 168 166 167 167
247 255 214 219 198 124 220 251 254 275 280 223 214 245 240 223 237 251 271 282 294 302 286 244 239 258 183 235 231 128 135 162 161 142 134 141 159 168 148 120 105 91 79 73 64 47 37 29 7 358 21 54 90 125 131 102 134 187 211 253 249 183 168 168 166 166 168 169 169 167 168 170 168 169 172 173 174 176 180 176 173 176 173 168 169 172
252 267 189 189 202 213 242 261 251 250 284 290 234 246 259 252 245 252 263 262 260 265 265 237 243 249 200 204 190 154 172 188 164 151 163 170 160 141 127 118 103 94 85 75 72 58 40 36 32 47 66 66 76 102 115 132 160 180 188 222 263 230 167 164 169 167 167 169 169 168 170 172 172 172 176 180 177 176 181 178 173 177 179 170 170 174
278 287 277 220 227 222 225 266 287 276 285 289 269 236 244 253 249 250 259 252 244 252 257 236 243 251 240 220 181 182 206 201 172 170 173 158 141 136 131 114 101 97 96 87 84 80 54 40 43 52 78 85 86 105 111 154 165 179 186 198 245 255 174 165 176 168 166 170 170 171 172 174 176 175 178 184 180 174 176 175 171 177 181 172 170 175
257 276 288 281 269 245 202 207 269 265 254 255 271 292 271 256 253 242 247 258 257 259 261 259 259 254 254 264 193 191 205 198 185 188 173 155 154 146 126 116 111 104 102 97 94 90 71 59 55 41 61 96 102 112 110 158 172 177 188 184 204 211 184 192 191 168 168 173 171 174 176 176 178 177 177 183 180 172 173 175 174 180 185 180 174 175
264 271 279 270 276 274 225 196 246 257 237 230 241 262 265 264 270 259 247 247 261 264 266 273 272 263 294 301 220 195 200 200 197 199 178 165 169 148 125 125 118 111 109 100 98 98 87 78 65 45 47 73 81 93 105 131 150 149 177 184 182 176 167 188 197 163 167 176 176 179 179 178 181 180 177 179 173 167 172 178 182 185 185 183 181 181
274 274 273 271 285 287 258 222 254 281 279 251 235 241 253 258 258 261 258 250 259 265 271 278 273 292 37 300 226 205 216 206 201 208 191 171 165 142 126 128 117 111 109 101 102 106 100 98 89 75 67 69 65 61 64 66 110 133 149 146 144 144 134 148 160 149 160 177 182 179 178 178 177 173 177 186 186 175 173 178 186 195 193 187 186 187
282 275 273 270 274 271 258 248 256 266 278 283 278 267 270 275 272 272 272 273 279 281 288 289 284 317 352 251 97 31 271 208 200 208 197 163 147 130 119 121 120 117 115 110 113 113 110 112 109 104 99 92 86 71 55 46 67 117 132 126 134 138 119 121 136 144 157 174 174 171 174 178 174 168 178 189 198 199 195 189 190 195 194 190 191 193
43 287 279 271 265 273 278 277 278 280 278 278 284 283 281 280 271 261 265 273 285 288 290 294 300 350 320 338 45 30 13 352 217 200 175 139 127 123 124 127 127 123 121 117 113 112 114 117 114 111 109 106 105 100 82 61 52 64 82 97 117 133 138 139 141 148 159 164 171 165 157 163 172 178 177 176 184 199 207 207 204 200 194 185 186 197
44 263 262 270 276 282 279 272 272 275 270 257 258 266 276 279 276 275 278 280 279 279 279 276 270 254 357 1 5 340 331 248 215 184 161 132 118 125 134 131 132 127 123 123 122 125 127 124 120 117 114 112 111 107 103 92 73 63 64 67 77 93 112 128 142 159 159 151 161 164 135 140 161 180 183 180 189 203 208 210 215 220 220 208 199 206
317 249 237 263 278 278 266 253 250 255 259 262 266 277 288 290 288 283 279 280 276 274 276 276 273 266 39 358 350 322 303 233 203 185 162 129 123 145 147 133 133 131 128 132 132 136 138 131 127 124 121 118 116 114 112 111 103 89 80 75 71 71 79 91 106 132 142 135 132 133 131 140 155 173 184 187 199 201 193 197 243 271 263 250 243 245
283 274 268 266 267 270 270 271 298 324 321 314 310 302 297 303 311 311 295 275 266 273 277 273 276 292 125 168 27 336 307 276 237 209 178 154 156 164 153 138 135 133 136 135 127 124 120 114 114 116 119 121 121 121 121 120 116 105 97 94 90 86 85 85 89 101 113 119 123 125 124 121 132 198 203 206 223 214 202 204 222 249 263 267 268 269
282 276 273 268 266 274 283 296 315 327 313 292 292 288 280 284 298 304 294 274 280 295 283 271 290 316 291 242 35 4 312 291 290 272 243 213 171 138 124 141 145 146 145 132 125 123 111 103 106 109 113 119 123 123 121 121 119 113 111 107 101 100 100 98 96 95 95 98 106 113 113 109 114 149 186 203 222 219 212 212 210 216 236 254 257 257
268 256 254 262 265 270 279 289 297 301 292 285 287 286 281 281 283 281 279 285 297 296 278 284 313 320 309 312 351 357 323 314 317 306 294 288 133 120 132 167 175 177 171 157 153 147 129 117 111 113 115 115 114 113 112 113 113 113 112 111 111 114 117 120 122 114 104 97 98 103 107 114 126 127 110 117 127 146 181 190 191 197 213 230 239 245
249 255 254 261 264 267 272 277 280 282 282 282 282 280 281 290 290 276 266 272 276 275 278 289 295 291 297 306 310 316 316 309 298 287 281 292 272 146 161 183 196 196 184 174 165 149 136 132 127 125 121 117 116 115 114 115 115 113 112 112 114 115 116 122 126 124 120 117 115 119 122 123 128 134 142 149 148 151 155 154 161 179 202 226 234 236
230 256 264 271 274 275 274 276 282 284 283 283 282 279 278 280 278 272 273 277 275 273 276 281 285 285 288 291 296 310 315 304 295 285 267 260 263 236 195 194 207 218 216 198 170 150 141 134 131 130 126 125 127 127 125 125 124 122 119 117 117 116 116 117 118 117 115 116 120 124 127 126 123 128 143 165 176 181 170 174 196 205 215 227 230 231
188 262 294 292 285 282 281 282 283 281 280 280 281 283 286 285 281 279 281 280 276 274 276 284 292 296 301 304 304 301 296 295 300 297 282 266 255 247 232 222 230 237 237 229 185 155 155 158 147 140 129 125 124 125 128 132 132 131 127 126 126 121 118 116 114 112 106 107 117 121 123 128 126 128 135 141 162 175 171 192 213 221 222 224 230 237
173 263 303 295 279 279 283 280 278 281 283 280 279 284 290 288 285 288 286 276 275 283 286 290 289 291 327 342 329 315 312 318 324 323 318 318 309 283 243 224 230 233 240 255 235 159 163 183 163 135 128 140 143 140 146 154 151 144 144 150 154 151 158 166 157 142 132 133 142 134 125 128 131 133 132 118 101 294 272 256 250 249 246 242 243 246
236 257 279 279 276 284 286 287 293 297 287 277 281 298 302 296 297 310 310 300 303 315 308 295 298 325 345 340 328 335 345 339 334 334 332 336 341 339 331 281 236 224 236 255 242 171 178 183 139 118 114 177 158 138 144 153 144 135 138 150 156 160 167 172 166 156 155 162 159 146 140 148 160 157 145 146 186 257 279 281 275 267 263 262 260 253
255 258 266 272 275 279 286 297 300 287 270 274 294 315 322 317 314 316 315 310 317 337 330 313 325 349 346 336 337 356 352 336 335 337 331 334 343 349 351 346 335 323 293 277 242 181 187 141 106 104 74 347 58 61 64 121 119 127 149 161 158 159 169 175 168 161 163 165 163 163 167 169 167 157 143 189 247 267 276 280 281 277 266 261 265 261
255 265 273 272 270 273 285 292 277 260 263 285 301 323 327 307 305 309 309 311 319 331 330 324 330 344 342 339 344 343 325 326 327 324 336 2 4 5 3 358 2 10 360 0 34 60 83 86 90 95 81 22 50 8 273 187 144 163 184 174 161 161 185 194 174 165 169 169 171 176 174 171 170 171 217 287 296 295 292 288 285 281 270 260 260 262
259 264 262 261 268 274 276 268 257 267 288 288 314 6 11 344 333 334 318 313 324 340 345 337 330 340 349 348 341 331 333 343 326 315 342 30 18 13 12 4 10 21 25 64 77 68 69 80 87 101 96 27 335 287 258 195 153 192 197 178 178 188 200 206 203 198 187 176 193 200 180 170 170 179 223 264 281 285 290 290 288 284 275 264 260 262
250 249 248 252 259 264 265 265 265 276 287 289 351 31 27 14 14 13 343 321 335 359 9 355 342 0 16 4 351 349 351 349 328 334 5 14 7 13 13 4 21 43 41 65 86 82 64 53 24 191 148 172 291 295 305 324 296 251 239 226 222 215 208 209 221 223 203 195 219 214 182 180 202 211 221 242 258 269 278 281 285 286 277 266 261 260
234 235 239 243 246 256 263 270 271 269 278 340 55 51 42 30 15 1 332 322 358 15 18 6 354 2 11 2 353 353 348 332 320 12 12 2 359 15 18 352 1 45 54 49 53 45 269 268 278 285 295 295 287 296 299 291 276 263 257 255 250 241 234 229 231 229 218 222 234 224 205 212 221 222 228 245 256 263 274 278 280 281 275 266 263 263
228 226 243 250 252 258 258 261 268 265 280 17 20 18 28 28 3 338 302 305 1 3 2 1 357 355 357 359 353 346 335 318 334 13 360 347 345 357 2 341 339 354 18 136 198 248 259 283 303 277 294 304 292 282 281 283 284 277 266 264 264 259 257 258 259 258 256 260 269 268 254 242 234 239 247 251 252 255 266 274 279 279 272 264 259 259
241 237 245 247 248 252 254 259 267 262 58 37 20 3 352 350 346 316 269 305 360 355 353 358 356 351 351 352 346 333 321 319 335 345 338 331 329 333 341 346 345 340 330 310 316 327 335 347 349 312 283 279 270 264 264 272 279 277 273 272 269 265 265 266 266 265 265 268 273 274 268 256 244 243 244 242 243 249 255 261 267 271 269 264 256 252
283 278 262 251 248 250 252 256 261 236 82 25 8 357 338 331 333 297 276 332 348 341 343 345 342 339 338 336 329 320 322 329 330 326 323 319 319 327 333 331 327 325 317 313 324 334 334 328 319 305 292 285 282 282 281 275 270 270 271 269 266 264 263 259 259 260 262 266 269 271 271 266 258 251 242 237 239 244 248 254 260 261 262 262 254 248
255 271 265 256 251 253 251 254 263 256 165 297 337 352 340 321 323 322 324 329 326 327 332 328 322 322 321 318 315 311 315 320 318 314 314 313 312 314 313 307 302 300 297 296 304 311 310 303 298 289 281 281 286 289 287 282 275 269 266 264 263 266 266 264 263 261 260 260 261 262 264 265 264 257 248 244 244 244 245 248 253 255 257 258 249 223
221 242 252 244 247 256 252 251 260 259 236 292 329 353 3 347 340 338 329 320 317 320 320 314 309 309 308 311 313 310 309 310 308 304 302 302 303 302 299 299 298 293 291 290 289 289 289 288 286 284 284 287 288 286 286 286 282 277 273 269 267 269 270 268 266 263 263 263 263 264 265 265 264 260 252 246 245 247 246 244 247 253 254 246 218 167
215 257 265 263 281 268 256 252 234 199 265 304 324 337 342 336 328 321 315 310 308 309 307 302 305 312 316 316 312 307 305 304 301 300 297 293 294 294 293 295 295 293 292 290 287 286 286 283 280 282 284 283 279 275 272 272 270 268 266 263 264 266 267 266 266 265 264 264 263 264 264 263 261 258 252 249 249 247 241 238 243 250 243 214 175 155
51 5 304 311 1 305 281 293 306 283 289 310 330 336 334 329 319 314 310 304 304 311 313 310 312 316 318 313 307 303 298 294 293 293 291 289 288 287 285 285 285 285 285 284 282 282 281 278 276 276 277 276 275 273 272 274 274 272 269 267 267 267 265 266 269 266 264 264 265 263 262 263 264 261 253 248 249 246 241 238 236 223 175 153 160 162
37 15 344 324 315 304 297 298 303 308 317 328 331 323 318 315 311 315 319 320 327 337 335 325 316 312 310 305 300 296 293 292 291 287 284 283 283 284 285 284 283 281 280 278 277 277 275 273 272 271 271 272 273 273 273 274 274 272 270 269 265 260 256 255 256 255 253 252 252 254 256 257 261 266 265 256 250 248 246 239 205 170 156 158 175 174
54 28 349 309 296 296 298 302 309 314 316 319 319 314 314 322 332 341 344 339 336 333 327 318 309 305 304 302 298 295 294 293 291 287 285 285 282 281 281 281 280 280 279 278 277 276 275 275 273 272 271 272 275 276 273 270 269 268 268 267 262 257 252 245 242 247 251 248 244 244 247 248 250 258 267 267 264 259 253 236 184 169 172 184 193 181
56 36 336 298 288 286 292 306 318 318 311 310 313 317 325 336 341 340 335 327 320 315 310 307 304 303 303 301 297 295 295 295 295 295 295 295 293 291 288 285 283 281 279 281 281 278 278 280 280 281 281 281 284 288 285 279 277 276 276 276 275 275 273 264 255 257 264 269 269 265 262 262 259 253 253 259 267 266 241 224 204 188 185 193 197 185
315 321 304 297 293 286 289 313 337 339 326 317 320 325 332 335 330 323 318 314 309 305 302 302 301 299 297 295 293 291 291 293 294 292 291 292 291 290 289 290 290 288 285 287 289 289 289 292 294 294 295 293 291 291 289 286 283 281 281 281 280 280 281 280 277 272 268 270 277 278 274 272 267 258 252 245 214 168 175 191 198 194 195 209 210 195
295 300 308 310 298 290 307 336 351 343 316 309 318 322 323 320 313 309 309 308 306 307 309 309 306 301 296 293 290 287 284 282 280 282 286 287 285 285 286 287 289 289 287 289 295 295 291 289 289 288 289 289 287 283 280 278 277 276 273 271 270 269 269 271 273 270 264 260 261 265 268 267 261 259 256 216 160 154 156 159 171 190 207 219 213 195
347 346 346 323 300 300 316 328 333 318 299 303 314 314 314 314 312 310 314 319 318 317 318 315 311 306 301 297 295 294 289 286 287 290 292 290 289 289 289 287 288 290 288 288 291 291 288 285 284 282 281 281 279 277 275 273 271 269 266 265 267 268 269 269 268 264 258 253 249 250 254 256 258 261 248 179 156 153 143 132 134 154 176 182 174 166